Location: Kawakawa
(35.3830°S, 174.0670°E)
Time: 13:48:24
(UTC+12:00)

Daily predictions for brighter satellites

Satellite Brightness Start Highest point End
(mag) Time Altitude Azimuth Time Altitude Azimuth Time Altitude Azimuth
USA 234 3.4 17:39:24 10° SE 17:46:00 71° NE 17:52:33 10° NW
Cosmos 1606 4.0 17:47:07 10° SSE 17:50:00 20° ESE 17:52:50 10° NE
Atlas Centaur 2 2.9 17:45:52 10° WNW 17:50:30 46° N 17:56:21 10° ENE
Cosmos 2151 4.3 17:47:42 10° NE 17:50:43 19° E 17:53:46 10° SE
IRIDIUM 104 4.4 17:45:58 10° S 17:51:11 57° E 17:56:20 10° NNE
Meteor PRIRODA 3.7 17:53:17 10° SSE 17:57:05 86° ENE 18:00:47 10° N
IRIDIUM 114 4.3 17:55:04 10° S 18:00:22 72° E 18:05:35 10° N
Cosmos 1437 Rocket 3.5 17:57:12 10° SSE 18:00:36 29° ESE 18:03:57 10° NE
ERS-2 4.1 17:59:48 10° E 18:00:45 11° ESE 18:01:42 10° SE
Cosmos 1356 3.8 17:58:46 10° NNW 18:02:09 67° W 18:05:36 10° S
ATLAS CENTAUR Rocket 3.4 17:59:33 10° NW 18:03:35 24° N 18:06:40 10° ENE
ATLAS 3B R/B 3.5 17:58:05 10° NW 18:05:28 58° SW 18:12:46 10° SSE
Cosmos 1242 Rocket 4.2 18:03:37 10° SE 18:05:51 15° ESE 18:08:02 10° ENE
Cosmos 2058 3.6 18:02:21 10° NNW 18:06:26 60° W 18:10:36 10° S
deb Chang Zheng 4 3.6 18:03:07 10° SSE 18:07:29 61° ENE 18:11:47 10° N
Meteor 2-15 4.4 18:02:13 10° S 18:08:22 76° E 18:14:25 10° NNE
Envisat 3.4 18:04:19 10° S 18:09:27 69° WSW 18:14:30 10° NNW
IRIDIUM 103 4.4 18:04:10 10° S 18:09:29 88° E 18:14:44 10° N
Cosmos 2237 Rocket 2.5 18:06:03 10° NNW 18:11:42 71° WSW 18:17:26 10° SSE
USA 276 3.8 18:09:18 10° WSW 18:12:18 36° NW 18:15:16 10° NNE
H-2A R/B 4.4 18:10:58 10° S 18:14:31 36° WSW 18:18:00 10° NW
SJ 16-02 2.6 18:11:48 10° SSE 18:15:10 21° ESE 18:18:30 10° ENE
SMAP 3.5 18:11:29 10° SSE 18:15:58 42° E 18:20:22 10° N
Cosmos 1943 Rocket 3.8 18:18:20 10° SSE 18:21:18 14° SE 18:21:52 14° ESE
Cosmos 1689 Rocket 3.1 18:19:35 10° NE 18:21:57 23° ESE 18:24:21 10° SSE
NOAA 6 4.0 18:17:11 10° SSE 18:22:21 64° ENE 18:27:25 10° N
H-2A R/B 3.8 18:21:39 17° ESE 18:22:30 18° E 18:25:11 10° NE
Cosmos 1553 Rocket 4.1 18:18:12 10° S 18:24:07 48° E 18:29:59 10° NNE
CSL-04 DEB 4.3 18:20:36 10° NNE 18:24:32 89° ESE 18:28:33 10° SSW
SEDSat Delta rocket 4.5 18:26:06 10° W 18:31:41 51° N 18:37:47 10° ENE
Hubble Space Telescope 2.7 18:32:10 10° NNW 18:35:08 19° NNE 18:37:25 13° NE
CZ-2D R/B 4.5 18:35:47 22° E 18:35:47 22° E 18:38:50 10° NNE
Okean O Rocket 2.3 18:34:14 15° SE 18:37:23 33° E 18:41:25 10° NNE
PSLV R/B 3.7 18:34:37 10° S 18:38:26 82° WSW 18:42:08 10° NNW
Lacrosse 5 2.5 18:35:32 10° SSW 18:40:14 35° SE 18:42:25 24° E
Cosmos 2278 Rocket 2.5 18:35:15 10° SSW 18:40:57 71° WNW 18:46:35 10° N
Cosmos 1777 Rocket 4.1 18:39:33 10° SSW 18:44:53 83° WNW 18:50:07 10° NNE
BREEZE-M DEB (TANK) 3.5 18:43:57 10° NNW 18:46:33 33° NE 18:47:27 29° E
MOS 1-B 4.3 18:41:01 10° SSE 18:46:54 75° ENE 18:52:43 10° N
Cosmos 1933 3.7 18:43:53 10° S 18:47:49 40° E 18:51:41 10° NNE
CZ-2C R/B 3.3 18:43:54 10° N 18:49:29 63° W 18:55:05 10° SSW
CZ-4B R/B 3.2 18:45:52 10° SSE 18:51:07 55° E 18:56:19 10° N
Cosmos 468 Rocket 4.2 18:49:08 10° N 18:54:16 51° ENE 18:57:19 24° SE
Okean 3 Rocket 3.9 18:53:00 10° NNE 18:57:10 43° E 18:57:59 39° ESE
Meteor 2-3 Rocket 3.6 18:54:42 10° N 19:00:18 83° E 19:06:03 10° S
Cosmos 1655 Rocket 3.9 18:54:44 10° N 19:01:02 78° E 19:07:28 10° S
Cosmos 540 Rocket 4.5 18:58:30 10° NNE 19:01:48 27° ENE 19:01:48 27° ENE
Cosmos 1766 Rocket 3.7 18:58:50 10° N 19:03:12 53° E 19:04:23 41° SE
H-2A R/B 3.5 19:06:48 20° NE 19:06:48 20° NE 19:08:44 10° NNE
PAYLOAD B 4.4 19:01:22 10° S 19:06:59 72° WSW 19:12:30 10° NNW
Cosmos 1461 3.0 19:03:02 10° SSW 19:07:27 84° WNW 19:11:29 13° NNE
ATLAS CENTAUR R/B 3.4 19:17:17 10° SSW 19:18:33 18° S 19:18:33 18° S
Cosmos 1939 Rocket 3.8 19:17:52 10° S 19:21:51 49° WSW 19:25:52 10° NNW
Lacrosse 5 rocket 2.7 19:21:01 10° NNW 19:24:00 32° NNE 19:24:00 32° NNE
SL-16 R/B 3.1 19:21:54 10° NW 19:27:21 48° WSW 19:32:00 14° S
Cosmos 883 Rocket 4.4 19:21:29 10° S 19:27:44 68° E 19:33:57 10° NNE
USA 234 4.5 19:24:15 16° SSE 19:28:37 34° SSW 19:34:22 10° W
CZ-2C R/B 3.3 19:25:08 13° S 19:29:17 60° WSW 19:34:00 10° NNW
ERS-2 3.4 19:30:21 10° N 19:33:49 41° W 19:37:21 10° SSW
Atlas Centaur 2 3.8 19:34:24 10° WNW 19:39:18 30° NNW 19:41:59 22° NNE
Cosmos 2266 Rocket 4.4 19:33:36 10° NNW 19:39:33 59° W 19:45:39 10° S
Cosmos 2297 3.7 19:40:25 10° SSW 19:46:15 85° WNW 19:46:44 76° N
SJ 16-02 3.2 19:49:51 10° SW 19:53:43 29° W 19:57:34 10° NNW
H-2A R/B 4.4 19:58:12 25° WSW 19:58:12 25° WSW 20:01:10 10° NW
Cosmos 1943 Rocket 3.2 19:59:58 10° SSW 20:03:29 39° SSW 20:03:29 39° SSW
Cosmos 1607 4.2 20:02:05 10° SSW 20:07:09 60° SW 20:07:09 60° SW
USA 229 DEB 4.2 20:04:53 10° NNW 20:10:56 56° N 20:10:56 56° N
USA 229 4.2 20:04:58 10° NNW 20:10:58 55° N 20:10:58 55° N
Cosmos 2315 Rocket 4.4 20:07:04 10° SSW 20:13:19 62° W 20:19:34 10° N
Okean O Rocket 4.1 20:11:42 16° SW 20:13:28 20° WSW 20:16:42 10° WNW
Hubble Space Telescope 3.7 20:12:08 10° WNW 20:12:44 13° NW 20:12:44 13° NW
Lacrosse 5 3.7 20:18:33 10° WSW 20:21:42 29° W 20:21:42 29° W
NOSS 3-1 (A) 4.4 20:23:52 10° NNW 20:31:13 63° NNW 20:31:13 63° NNW
